[Date Prev][Date Next][Thread Prev][Thread Next] - [Date Index][Thread Index][Author Index]
2 Line ISS Keps 5-14
- Subject: [sarex] 2 Line ISS Keps 5-14
- From: "Dave Larsen PhD" <doc@xxxxxxxxxxx>
- Date: Tue, 14 May 2002 03:14:23 -0700
ISS
1 25544U 98067A 02134.18618780 .00046778 00000-0 57557-3 0 4415
2 25544 51.6383 223.8793 0008325 60.8511 19.8648 15.59728756198729
----
Via the sarex mailing list at AMSAT.ORG courtesy of AMSAT-NA.
To unsubscribe, send "unsubscribe sarex" to Majordomo@amsat.org
AMSAT Home